PROFILE

 METAR AND TAF INFORMATION
ADDS - METARS form results

(1204 UTC 26 September 2021)
http://aviationweather.gov/metar/data/
 
TNCM 261200Z 09005KT 050V120 9999 FEW020 30/23 Q1016 NOSIG
TNCM 261120Z 2612/2712 07004KT P6SM FEW018 FM261300 14010KT P6SM SCT018 FM262100 08005KT P6SM VCSH SCT018 SCT035 

 AIRPORT MAP

 RUNWAY INFORMATION
Runway 10 Runway length 7546 ft Runway width 150 ft
Runway elevation 13 ft Runway displaced threshold 0 ft Runway heading 96
Runway 28 Runway length 7546 ft Runway width 150 ft
Runway elevation 9 ft Runway displaced threshold 328 ft Runway heading 276

 AIRPORT FREQUENCIES
Type APP Name JULIANA AP Frequency 128.95 MHZ
Type TWR Name JULIANA TW Frequency 118.7 MHZ

 AIRPORT NEAR NAVIGATION AIDS
Type NDB Name St.mMarten Frequency 284 KHZ
Type VOR-DME Name St.mMarten Frequency 113000 KHZ